SCP
0 0 0 0 -0 -0 0 0 -0 0 0 0 -0 -0 -0 0 -0 0 -0 -0 -0 -0 0 0 0 0 0 -0 -0 -0 -0 0 -0
0 -0 0 0 0 -0 0 0 -0 -0 0 0 0 -0 0 0 -0 -0 0 -0 -0 -0 -0 0 0 0 0 0 0 0 -0 -0 -0
0 -0 0 0 -0 0 0 0 0 -0 -0 -0 -0 0 0 0 0 0 0 0 0 -0 -0 -0 -0 0 0 0 0 0 0 -0 -0
0 0 0 0 -0 -0 0 0 0 0 0 0 -0 0 0 0 0 0 0 0 0 0 0 0 0 0 0 0 0 0 0 0 0
0 0 0 0 -0 -0 0 0 0 -0 0 0 -0 0 0 0 0 0 0 0 0 0 0 0 0 0 0 0 0 0 0 0 0
-0 -0 -0 0 -0 0 0 0 -0 -0 -0 -0 -0 -0 -0 0 0 0 0 0 0 0 0 0 0 0 0 0 0 0 0 0 0
0 0 0 0 0 0 0 0 0 0 0 0 0 0 0 0 0 0 0 0 0 0 0 0 0 0 0 0 0 0 0 1 0
0 0 0 0 0 0 0 0 0 0 0 0 0 0 0 0 0 0 0 1 1 1 1 0 0 0 1 1 1 0 1 1 1
0 0 0 0 0 0 0 0 0 1 1 1 1 0 0 1 0 0 0 1 1 1 1 1 1 1 0 1 1 1 1 1 1
0 0 0 -0 -0 0 0 0 0 0 0 1 1 1 1 1 1 1 0 0 1 1 1 1 2 0 1 1 1 1 0 0 1
0 0 0 0 -0 -0 -0 0 0 0 0 0 0 1 0 0 0 0 0 0 0 0 1 1 2 1 1 0 0 1 0 0 0
0 0 0 0 0 0 0 0 0 0 0 0 0 0 0 0 0 0 0 1 0 0 0 0 0 0 1 1 1 0 0 0 0
-0 0 0 0 0 0 0 0 -0 0 0 0 0 0 0 0 0 0 0 1 1 1 0 0 0 0 0 0 0 0 0 0 0
0 0 0 0 0 0 0 0 -0 -0 -0 0 0 0 0 0 0 0 0 0 0 0 0 0 0 0 0 0 0 0 0 0 0
0 0 0 0 0 0 0 0 -0 -0 -0 -0 0 0 0 0 0 0 0 0 0 0 0 0 0 0 0 0 0 0 0 0 0
0 0 0 0 0 0 0 0 0 0 -0 -0 0 0 0 0 0 0 0 0 0 0 0 0 0 0 0 0 0 0 0 0 0
0 0 0 0 0 0 0 0 0 0 0 0 0 0 0 0 0 0 0 0 0 0 0 0 0 0 0 0 0 0 0 0 0
0 0 0 0 0 0 0 0 0 0 0 0 0 0 0 0 0 0 0 0 0 0 0 0 0 0 0 0 0 0 0 0 0
0 0 0 0 0 0 0 0 0 0 0 0 0 0 0 0 0 0 0 0 0 0 0 0 0 0 0 0 0 0 0 0 0
0 0 0 0 0 0 0 0 0 0 0 0 0 0 0 0 0 0 0 0 0 0 0 0 0 0 0 -0 -0 -0 -0 0 0
Wind_Speed_500mb
15 26 39 40 37 43 43 41 43 39 32 26 34 36 33 32 34 34 30 32 28 23 20 15 14 13 9 6 7 10 10 10 16
9 17 22 28 41 43 43 43 43 45 38 31 30 31 33 31 35 36 33 31 31 25 23 19 17 15 12 13 12 12 14 13 14
16 10 10 12 15 37 43 49 44 45 49 45 32 27 31 35 31 36 30 27 30 29 28 25 21 22 20 21 19 21 17 17 17
13 7 12 24 27 25 36 35 43 46 47 53 54 44 35 37 35 32 37 34 30 30 31 30 28 27 28 30 28 26 29 24 24
9 7 9 19 24 23 31 37 35 33 37 45 53 56 49 43 42 41 37 39 36 32 35 36 35 34 35 37 36 33 32 32 29
11 12 11 6 10 18 27 35 38 35 35 38 43 48 53 52 52 55 49 42 36 35 35 35 38 40 43 44 42 43 44 42 42
17 23 25 18 8 5 17 24 35 36 35 37 42 44 48 47 48 50 54 47 41 36 35 35 36 36 39 42 42 44 45 50 49
18 26 30 26 18 11 3 5 15 24 31 33 34 36 40 40 39 38 46 50 50 44 37 33 26 29 35 34 38 45 46 47 52
17 19 25 29 27 18 11 7 2 9 16 20 20 18 23 29 31 33 31 33 33 34 39 36 29 24 28 34 35 38 37 40 51
24 26 29 32 32 30 23 19 17 13 7 6 8 13 16 21 19 21 27 27 27 42 39 36 37 37 45 52 45 43 53 46 48
24 27 28 28 28 27 25 23 23 22 14 15 19 12 6 9 15 17 21 32 40 41 36 38 40 34 43 47 63 83 73 50 50
20 22 23 23 22 21 20 20 19 18 19 17 10 3 7 12 22 29 31 32 26 26 28 35 34 35 38 47 51 69 84 80 64
22 20 16 14 14 16 16 13 11 12 18 21 12 6 2 2 5 9 12 21 30 31 31 27 31 32 37 36 42 42 43 57 67
21 15 10 6 8 12 16 17 11 11 14 14 11 6 5 9 10 11 12 14 17 19 23 25 29 33 32 33 32 32 32 35 43
15 8 2 7 12 14 11 11 9 12 13 8 7 10 12 14 13 14 16 19 23 26 29 32 37 39 38 39 40 42 38 36 32
12 7 7 14 11 11 8 3 5 7 9 11 14 15 15 13 12 13 16 23 29 29 29 28 28 32 36 36 39 42 40 36 38
19 15 13 8 8 10 9 6 5 5 5 7 7 10 12 15 16 18 22 27 24 21 25 25 20 23 32 32 27 24 26 29 27
22 19 15 8 4 6 8 9 9 8 9 8 5 7 10 15 19 28 25 24 24 26 21 14 12 21 26 19 18 16 11 5 5
19 16 11 10 13 15 19 19 15 11 10 11 9 7 10 13 20 17 21 27 22 14 9 9 13 17 23 22 17 11 9 3 4
18 10 8 11 12 15 19 17 12 10 10 10 12 13 13 12 13 16 25 16 13 10 10 8 12 11 18 22 16 13 7 4 2
Wind_Direction_500mb
195 213 222 221 227 231 229 228 225 229 236 246 244 235 237 240 237 239 242 237 246 261 249 255 263 274 296 300 261 252 258 262 249
182 203 199 217 229 238 235 231 236 238 239 243 247 249 244 247 241 239 244 244 244 247 247 256 246 255 287 289 268 271 268 269 257
102 120 155 196 250 236 240 237 239 239 245 245 243 245 252 256 248 240 241 242 240 244 247 249 256 253 268 280 294 268 263 265 264
73 96 184 226 246 242 235 241 242 247 247 246 246 242 242 251 261 252 243 244 246 251 255 254 258 265 265 270 276 289 265 260 259
8 358 286 261 251 235 230 231 241 245 249 248 249 250 248 250 248 256 254 249 250 253 257 260 261 264 267 268 272 271 272 262 260
44 10 358 318 233 242 236 234 238 245 251 253 256 259 255 252 250 248 253 254 254 257 259 263 265 266 267 267 268 272 270 263 259
28 25 27 27 11 232 245 254 246 237 241 255 262 262 262 258 255 251 251 257 260 259 261 263 264 265 268 271 271 268 271 269 265
54 46 47 50 57 57 17 263 253 252 260 266 273 272 264 257 255 251 243 248 255 259 259 261 269 275 268 269 277 278 274 272 273
88 71 60 58 59 59 35 32 254 240 243 250 255 255 268 269 262 257 259 254 253 260 254 248 259 275 286 271 274 281 273 274 278
102 89 80 76 77 74 69 57 41 19 344 316 286 244 243 255 257 256 246 233 242 276 266 258 255 284 299 285 266 281 277 268 272
98 89 88 88 79 75 72 63 55 49 19 312 302 285 261 266 266 243 252 266 269 265 264 274 278 287 293 289 268 263 259 273 284
116 99 92 90 78 65 57 50 40 28 18 15 22 351 286 265 256 265 269 269 274 275 289 297 288 286 279 282 275 274 269 251 277
137 121 109 82 55 36 20 16 20 11 358 353 357 1 348 276 273 258 260 262 266 273 277 270 274 284 288 283 282 285 274 256 270
139 143 132 100 31 11 353 348 340 346 351 0 14 41 12 343 337 324 304 292 289 285 284 277 277 277 280 282 282 278 270 258 262
134 141 59 360 345 340 331 333 343 344 350 4 34 10 349 331 315 313 317 315 311 309 307 304 298 293 291 289 283 278 273 268 277
166 195 306 325 340 330 321 350 2 347 348 343 330 334 341 346 346 336 329 321 311 311 316 311 299 292 293 290 281 275 272 261 264
216 239 264 286 338 -0 14 360 331 316 317 330 339 6 4 347 340 338 333 333 331 319 317 310 301 312 309 310 306 297 282 276 275
221 232 236 245 283 320 321 324 328 310 288 291 308 352 350 347 340 345 348 350 334 314 317 316 339 349 357 353 351 340 348 337 276
215 205 224 261 284 296 294 292 297 298 283 272 281 301 314 337 357 14 10 356 357 15 6 12 16 349 343 354 15 10 10 22 99
185 199 249 282 297 316 309 287 284 289 290 277 283 279 280 310 346 344 333 350 346 338 338 345 347 350 335 327 5 36 33 346 223
Wind_Speed_850mb
15 26 39 40 37 43 43 41 43 39 32 26 34 36 33 32 34 34 30 32 28 23 20 15 14 13 9 6 7 10 10 10 16
9 17 22 28 41 43 43 43 43 45 38 31 30 31 33 31 35 36 33 31 31 25 23 19 17 15 12 13 12 12 14 13 14
16 10 10 12 15 37 43 49 44 45 49 45 32 27 31 35 31 36 30 27 30 29 28 25 21 22 20 21 19 21 17 17 17
13 7 12 24 27 25 36 35 43 46 47 53 54 44 35 37 35 32 37 34 30 30 31 30 28 27 28 30 28 26 29 24 24
9 7 9 19 24 23 31 37 35 33 37 45 53 56 49 43 42 41 37 39 36 32 35 36 35 34 35 37 36 33 32 32 29
11 12 11 6 10 18 27 35 38 35 35 38 43 48 53 52 52 55 49 42 36 35 35 35 38 40 43 44 42 43 44 42 42
17 23 25 18 8 5 17 24 35 36 35 37 42 44 48 47 48 50 54 47 41 36 35 35 36 36 39 42 42 44 45 50 49
18 26 30 26 18 11 3 5 15 24 31 33 34 36 40 40 39 38 46 50 50 44 37 33 26 29 35 34 38 45 46 47 52
17 19 25 29 27 18 11 7 2 9 16 20 20 18 23 29 31 33 31 33 33 34 39 36 29 24 28 34 35 38 37 40 51
24 26 29 32 32 30 23 19 17 13 7 6 8 13 16 21 19 21 27 27 27 42 39 36 37 37 45 52 45 43 53 46 48
24 27 28 28 28 27 25 23 23 22 14 15 19 12 6 9 15 17 21 32 40 41 36 38 40 34 43 47 63 83 73 50 50
20 22 23 23 22 21 20 20 19 18 19 17 10 3 7 12 22 29 31 32 26 26 28 35 34 35 38 47 51 69 84 80 64
22 20 16 14 14 16 16 13 11 12 18 21 12 6 2 2 5 9 12 21 30 31 31 27 31 32 37 36 42 42 43 57 67
21 15 10 6 8 12 16 17 11 11 14 14 11 6 5 9 10 11 12 14 17 19 23 25 29 33 32 33 32 32 32 35 43
15 8 2 7 12 14 11 11 9 12 13 8 7 10 12 14 13 14 16 19 23 26 29 32 37 39 38 39 40 42 38 36 32
12 7 7 14 11 11 8 3 5 7 9 11 14 15 15 13 12 13 16 23 29 29 29 28 28 32 36 36 39 42 40 36 38
19 15 13 8 8 10 9 6 5 5 5 7 7 10 12 15 16 18 22 27 24 21 25 25 20 23 32 32 27 24 26 29 27
22 19 15 8 4 6 8 9 9 8 9 8 5 7 10 15 19 28 25 24 24 26 21 14 12 21 26 19 18 16 11 5 5
19 16 11 10 13 15 19 19 15 11 10 11 9 7 10 13 20 17 21 27 22 14 9 9 13 17 23 22 17 11 9 3 4
18 10 8 11 12 15 19 17 12 10 10 10 12 13 13 12 13 16 25 16 13 10 10 8 12 11 18 22 16 13 7 4 2
Wind_Direction_850mb
195 213 222 221 227 231 229 228 225 229 236 246 244 235 237 240 237 239 242 237 246 261 249 255 263 274 296 300 261 252 258 262 249
182 203 199 217 229 238 235 231 236 238 239 243 247 249 244 247 241 239 244 244 244 247 247 256 246 255 287 289 268 271 268 269 257
102 120 155 196 250 236 240 237 239 239 245 245 243 245 252 256 248 240 241 242 240 244 247 249 256 253 268 280 294 268 263 265 264
73 96 184 226 246 242 235 241 242 247 247 246 246 242 242 251 261 252 243 244 246 251 255 254 258 265 265 270 276 289 265 260 259
8 358 286 261 251 235 230 231 241 245 249 248 249 250 248 250 248 256 254 249 250 253 257 260 261 264 267 268 272 271 272 262 260
44 10 358 318 233 242 236 234 238 245 251 253 256 259 255 252 250 248 253 254 254 257 259 263 265 266 267 267 268 272 270 263 259
28 25 27 27 11 232 245 254 246 237 241 255 262 262 262 258 255 251 251 257 260 259 261 263 264 265 268 271 271 268 271 269 265
54 46 47 50 57 57 17 263 253 252 260 266 273 272 264 257 255 251 243 248 255 259 259 261 269 275 268 269 277 278 274 272 273
88 71 60 58 59 59 35 32 254 240 243 250 255 255 268 269 262 257 259 254 253 260 254 248 259 275 286 271 274 281 273 274 278
102 89 80 76 77 74 69 57 41 19 344 316 286 244 243 255 257 256 246 233 242 276 266 258 255 284 299 285 266 281 277 268 272
98 89 88 88 79 75 72 63 55 49 19 312 302 285 261 266 266 243 252 266 269 265 264 274 278 287 293 289 268 263 259 273 284
116 99 92 90 78 65 57 50 40 28 18 15 22 351 286 265 256 265 269 269 274 275 289 297 288 286 279 282 275 274 269 251 277
137 121 109 82 55 36 20 16 20 11 358 353 357 1 348 276 273 258 260 262 266 273 277 270 274 284 288 283 282 285 274 256 270
139 143 132 100 31 11 353 348 340 346 351 0 14 41 12 343 337 324 304 292 289 285 284 277 277 277 280 282 282 278 270 258 262
134 141 59 360 345 340 331 333 343 344 350 4 34 10 349 331 315 313 317 315 311 309 307 304 298 293 291 289 283 278 273 268 277
166 195 306 325 340 330 321 350 2 347 348 343 330 334 341 346 346 336 329 321 311 311 316 311 299 292 293 290 281 275 272 261 264
216 239 264 286 338 -0 14 360 331 316 317 330 339 6 4 347 340 338 333 333 331 319 317 310 301 312 309 310 306 297 282 276 275
221 232 236 245 283 320 321 324 328 310 288 291 308 352 350 347 340 345 348 350 334 314 317 316 339 349 357 353 351 340 348 337 276
215 205 224 261 284 296 294 292 297 298 283 272 281 301 314 337 357 14 10 356 357 15 6 12 16 349 343 354 15 10 10 22 99
185 199 249 282 297 316 309 287 284 289 290 277 283 279 280 310 346 344 333 350 346 338 338 345 347 350 335 327 5 36 33 346 223